Gunnison, CO

9:07 PM MDT on September 16, 2019 (GMT -0600)
Gunnison County

Weather History for KGUC - July, 2019

Change the Weather History Date:

Wednesday, July 10, 2019

  Actual Average Record
Temperature  
Mean Temperature 60 °F -  
Max Temperature 82 °F 77 °F 87 °F (2003)
Min Temperature 39 °F 44 °F 37 °F (2003)
Degree Days  
Heating Degree Days 4    
Growing Degree Days 10 (Base 50)    
Moisture  
Dew Point 33 °F    
Average Humidity 39    
Maximum Humidity 76    
Minimum Humidity 14    
Precipitation  
Precipitation 0.00 in - - ()
Sea Level Pressure  
Sea Level Pressure 30.25 in    
Wind  
Wind Speed 3 mph (North)    
Max Wind Speed 13 mph    
Max Gust Speed 20 mph    
Visibility 10 miles    
Events      
Averages and records for this station are not official NWS values.
T = Trace of Precipitation, MM = Missing Value Source: NWS Daily Summary

Daily Weather History Graph

Daily Weather History Graph

Search for Another Location

Airport or City:

Astronomy

Jul. 10, 2019 Rise Set
Actual Time 5:52 AM MDT 8:33 PM MDT
Civil Twilight 5:20 AM MDT 9:04 PM MDT
Nautical Twilight 4:41 AM MDT 9:43 PM MDT
Astronomical Twilight 3:57 AM MDT 10:27 PM MDT
Moon 2:46 PM MDT (7/10) 1:29 AM MDT (7/10)
Length of Visible Light 15h 43m
Length of Day
14h 41m
Waxing Gibbous, 64% of the Moon is Illuminated
Jul 10
Waxing Gibbous
Jul 16
Full
Jul 24
Last Quarter
Jul 31
New
Aug 7
First Quarter

Hourly Weather History & Observations

Time (MDT) Temp. Windchill Dew Point Humidity Pressure Visibility Wind Dir Wind Speed Gust Speed Precip Events Conditions
12:56 AM 48.9 °F - 33.1 °F 54% 30.23 in 10.0 mi Calm Calm - N/A   Clear
1:56 AM 46.9 °F - 32.0 °F 56% 30.23 in 10.0 mi North 3.5 mph - N/A   Clear
2:56 AM 45.0 °F 42.6 °F 32.0 °F 60% 30.25 in 10.0 mi NNW 4.6 mph - N/A   Clear
3:56 AM 43.0 °F - 30.9 °F 62% 30.27 in 10.0 mi Calm Calm - N/A   Clear
4:56 AM 41.0 °F - 34.0 °F 76% 30.30 in 10.0 mi Calm Calm - N/A   Clear
5:56 AM 39.0 °F 36.8 °F 30.9 °F 73% 30.34 in 10.0 mi NNW 3.5 mph - N/A   Clear
6:56 AM 42.1 °F 40.2 °F 33.1 °F 70% 30.35 in 10.0 mi Variable 3.5 mph - N/A   Clear
7:56 AM 46.9 °F - 33.1 °F 59% 30.36 in 10.0 mi Calm Calm - N/A   Clear
8:56 AM 52.0 °F - 33.1 °F 49% 30.38 in 10.0 mi North - - N/A   Clear
9:56 AM 59.0 °F - 33.1 °F 38% 30.35 in 10.0 mi Calm Calm - N/A   Clear
10:56 AM 64.9 °F - 34.0 °F 32% 30.31 in 10.0 mi Calm Calm - N/A   Clear
11:56 AM 71.1 °F - 32.0 °F 24% 30.29 in 10.0 mi Calm Calm - N/A   Clear
12:56 PM 75.0 °F - 30.0 °F 19% 30.25 in 10.0 mi Variable 4.6 mph - N/A   Clear
1:56 PM 78.1 °F - 28.0 °F 16% 30.23 in 10.0 mi Variable 4.6 mph - N/A   Clear
2:56 PM 81.0 °F - 28.0 °F 14% 30.20 in 10.0 mi East 5.8 mph - N/A   Clear
3:56 PM 82.0 °F - 28.9 °F 14% 30.18 in 10.0 mi ESE 4.6 mph - N/A   Clear
4:56 PM 82.9 °F - 34.0 °F 17% 30.17 in 10.0 mi WSW 6.9 mph - N/A   Clear
5:56 PM 82.0 °F - 35.1 °F 18% 30.17 in 10.0 mi WNW 12.7 mph 19.6 mph N/A   Clear
6:56 PM 80.1 °F - 37.9 °F 22% 30.18 in 10.0 mi NW 4.6 mph - N/A   Clear
7:56 PM 79.0 °F - 37.9 °F 23% 30.18 in 10.0 mi SSE 8.1 mph - N/A   Clear
8:56 PM 73.0 °F - 36.0 °F 26% 30.19 in 10.0 mi Variable 3.5 mph - N/A   Clear
9:56 PM 66.0 °F - 37.0 °F 34% 30.22 in 10.0 mi NNW 8.1 mph - N/A   Clear
10:56 PM 60.1 °F - 39.9 °F 47% 30.24 in 10.0 mi NNW 6.9 mph - N/A   Clear
11:56 PM 59.0 °F - 37.0 °F 44% 30.24 in 10.0 mi NNE 5.8 mph - N/A   Clear